[[{"header":{"parameterUnit":"m.s-1","parameterCategory":1,"la1":30.2991,"la2":30.254,"lo1":-89.0895,"lo2":-89.0444,"dy":0.0017,"dx":0.0017,"nx":28,"ny":28,"refTime":"2025-03-16T03:00:00:Z","depth":0,"parameterNumber":2,"parameterNumberName":"U-component_of_WINDS"},"data":[0,0,0,0,0,0,0,0,0,0,0,0,0,0,0,0,0,0,0,0,0,0,0,0,0,0,0,0,0,0,0,0,0,0,0,0,0,0,0,0,0,0,0,0,0,0,0,0,0,0,0,0,0,0,0,0,0,0,5.3299,5.3301,0,5.3428,5.343,5.3431,5.3397,5.3394,5.3392,5.3389,5.3527,5.3533,5.3539,0,0,0,0,0,0,0,0,0,0,0,0,0,5.3031,5.3036,5.3299,5.3301,5.3302,5.3428,5.343,5.3431,5.3397,5.3394,5.3391,5.3388,5.3525,5.3533,5.354,0,0,0,0,0,0,0,0,0,0,0,0,0,5.3152,5.3037,5.3299,5.33,5.3302,5.3428,5.343,5.3432,5.3398,5.3394,5.339,5.3387,5.3523,5.3532,5.3541,5.3675,0,0,5.3569,5.3573,0,0,0,0,0,0,0,0,5.3146,5.3162,5.3299,5.3301,5.3302,5.3392,5.3386,5.3514,5.3399,5.3362,5.3389,5.3385,5.3486,5.3498,5.3531,5.3681,5.3687,5.357,5.3575,5.3579,5.3582,0,0,0,0,0,0,0,5.3137,5.3157,5.335,5.3301,5.3303,5.3297,5.331,5.341,5.3444,5.3365,5.3362,5.3378,5.3486,5.3522,5.3534,5.3689,5.3569,5.3578,5.3583,5.3587,5.3959,5.3963,0,0,0,0,0,0,5.3126,5.315,5.3346,5.3354,5.3213,5.3305,5.3319,5.3368,5.3443,5.3451,5.3381,5.3376,5.3508,5.3523,5.3539,5.3701,5.3579,5.3588,5.3593,5.3954,5.396,5.3965,0,0,0,0,0,0,5.3121,5.3144,5.3341,5.3252,5.3276,5.3314,5.3368,5.3372,5.3408,5.3455,5.3462,5.3411,5.3506,5.3526,5.3641,5.3706,5.3592,5.36,5.3949,5.3956,5.3962,5.4028,0,0,0,0,0,0,5.3113,5.3142,5.3192,5.3253,5.3281,5.344,5.3372,5.3377,5.3423,5.3417,5.3485,5.3493,5.3504,5.3628,5.365,5.3716,5.3607,5.3944,5.3952,5.396,5.402,5.4036,5.4049,0,0,0,0,0,5.3104,5.3206,5.3194,5.3218,5.3343,5.3443,5.346,5.347,5.3428,5.3479,5.351,5.349,5.3695,5.364,5.3665,5.3735,5.394,5.395,5.3959,5.4013,5.4033,5.4049,0,0,0,0,0,0,5.3154,5.3214,5.3202,5.3327,5.338,5.3437,5.3502,5.3489,5.3557,5.3549,5.3561,5.3576,5.3695,5.3726,5.3664,5.387,5.3812,5.3827,5.3844,5.3863,5.3877,5.3867,5.3615,0,0,0,0,0,5.3179,5.3253,5.3303,5.3408,5.3435,5.3464,5.3508,5.3511,5.3568,5.3591,5.363,5.3688,5.3765,5.3816,5.3889,5.4025,5.404,5.4085,5.41,5.4111,5.4125,5.42,5.4221,5.3997,5.3997,5.3997,0,0,5.3232,5.3274,5.3321,5.3419,5.3461,5.354,5.3484,5.3569,5.3628,5.3604,5.3715,5.3747,5.3812,5.3938,5.3996,5.3968,5.419,5.4124,5.4133,5.414,5.4213,5.4234,5.4253,5.4004,5.4003,5.4001,0,0,5.337,5.3408,5.3501,5.3544,5.3607,5.3626,5.3648,5.3708,5.3727,5.3839,5.3823,5.3895,5.4028,5.4075,5.4116,5.4274,5.4259,5.4298,5.4374,5.4448,5.4466,5.4481,5.4538,5.4559,5.4311,5.4311,5.4311,0,5.3428,5.3544,5.3551,5.3638,5.3682,5.3663,5.3758,5.38,5.3886,5.3918,5.3885,5.4052,5.4095,5.4232,5.4271,5.4305,5.4333,5.429,5.4462,5.4478,5.4493,5.4547,5.4569,5.4316,5.4315,5.4315,5.4314,0,5.3614,5.3695,5.3763,5.3843,5.3896,5.3987,5.4009,5.4062,5.4061,5.4084,5.42,5.425,5.4334,5.4367,5.4368,5.4506,5.4487,5.4458,5.4401,5.4518,5.457,5.4591,5.4322,5.432,5.4319,5.4318,0,0,5.3785,5.3869,5.3894,5.3931,5.4,5.4064,5.4155,5.4236,5.4282,5.4342,5.442,5.4533,5.4507,5.4555,5.4561,5.4625,5.4748,5.4589,5.4591,5.4617,5.4905,5.4926,5.495,5.4739,5.4743,5.4746,5.49,0,5.3929,5.4087,5.4096,5.424,5.4316,5.43,5.438,5.4433,5.4457,5.4527,5.4555,5.4636,5.4595,5.4624,5.4687,5.472,5.4806,5.4709,5.4813,5.4817,5.4797,5.4977,5.5,5.5142,5.492,5.4924,5.4926,0,5.4117,5.4182,5.4333,5.4392,5.4425,5.4496,5.4571,5.4638,5.4698,5.4712,5.4765,5.4762,5.4859,5.4798,5.4932,5.4865,5.4909,5.4932,5.4938,5.4948,5.4878,5.4993,5.5188,5.521,5.4958,5.4955,5.4953,0,5.4228,5.4353,5.4459,5.4491,5.4564,5.4614,5.4647,5.4703,5.4752,5.4819,5.4851,5.4929,5.4972,5.5034,5.5053,5.5007,5.5188,5.5128,5.5203,5.5203,5.5242,5.5239,5.5447,5.527,5.5269,5.5269,5.5268,0,5.4387,5.4481,5.451,5.4575,5.4681,5.4692,5.4797,5.4827,5.4877,5.4951,5.4942,5.5012,5.5033,5.5107,5.5124,5.5233,5.5252,5.5268,5.5271,5.5268,5.5266,5.5297,5.5288,5.5275,5.5273,5.5272,5.5271,0,5.4528,5.4551,5.4667,5.4725,5.4743,5.4818,5.4869,5.4934,5.4957,5.505,5.5073,5.5111,5.5198,5.5223,5.5328,5.5339,5.5468,5.5462,5.5447,5.5447,5.5521,5.5514,5.5756,5.5789,5.559,5.5592,5.5594,0,5.4628,5.4699,5.4766,5.4813,5.4848,5.4925,5.4974,5.4989,5.5041,5.5116,5.5172,5.5257,5.5326,5.5466,5.5505,5.5586,5.5582,5.5662,5.5594,5.559,5.5584,5.5579,5.5587,5.5674,5.5676,5.5678,5.5679,0,5.4804,5.4812,5.4882,5.4957,5.5015,5.5075,5.5133,5.5173,5.5197,5.5257,5.5344,5.5397,5.5504,5.559,5.5672,5.5708,5.5699,5.57,5.5722,5.572,5.5708,5.5716,5.5482,5.5695,5.5693,5.5692,5.5691,5.569,5.4928,5.4991,5.5047,5.5126,5.5171,5.5226,5.5289,5.5321,5.5393,5.548,5.5486,5.5581,5.5642,5.5751,5.5792,5.5869,5.5846,5.5877,5.5885,5.5893,5.5899,5.5696,5.5884,5.5884,5.5883,5.5883,5.5883,0,5.5103,5.5139,5.5211,5.5292,5.5354,5.5338,5.5402,5.5456,5.554,5.5596,5.5664,5.5766,5.585,5.5895,5.5979,5.6031,5.6029,5.6053,5.6049,5.6058,5.5915,5.5887,5.6053,5.6053,5.6053,5.6053,5.6053,5.6053,5.5201,5.5307,5.5323,5.5452,5.5488,5.5579,5.5618,5.5669,5.5714,5.5828,5.5896,5.5925,5.5978,5.6066,5.6142,5.6154,5.6185,5.6212,5.6221,5.6086,5.6068,5.6051,5.6026,5.6218,5.6219,5.6358,5.6359,5.636]},{"header":{"parameterUnit":"m.s-1","parameterCategory":1,"la1":30.2991,"la2":30.254,"lo1":-89.0895,"lo2":-89.0444,"dy":0.0017,"dx":0.0017,"nx":28,"ny":28,"refTime":"2025-03-16T03:00:00:Z","depth":0,"parameterNumber":3,"parameterNumberName":"V-component_of_WINDS"},"data":[0,0,0,0,0,0,0,0,0,0,0,0,0,0,0,0,0,0,0,0,0,0,0,0,0,0,0,0,0,0,0,0,0,0,0,0,0,0,0,0,0,0,0,0,0,0,0,0,0,0,0,0,0,0,0,0,0,0,2.6288,2.6289,0,2.6375,2.6376,2.6377,2.6376,2.6375,2.6374,2.6373,2.6464,2.6468,2.6471,0,0,0,0,0,0,0,0,0,0,0,0,0,2.6124,2.6127,2.6288,2.6289,2.629,2.6375,2.6376,2.6377,2.6376,2.6375,2.6373,2.6372,2.6463,2.6467,2.6471,0,0,0,0,0,0,0,0,0,0,0,0,0,2.6202,2.6128,2.6288,2.63,2.6302,2.6375,2.6376,2.6378,2.6377,2.6375,2.6373,2.6371,2.6462,2.6467,2.6472,2.6539,0,0,2.6488,2.649,0,0,0,0,0,0,0,0,2.6197,2.6208,2.6297,2.6299,2.6302,2.6363,2.6352,2.6432,2.6377,2.6348,2.6373,2.6371,2.6432,2.644,2.646,2.6544,2.6548,2.6489,2.6492,2.6494,2.6496,0,0,0,0,0,0,0,2.6192,2.6204,2.6323,2.6298,2.6301,2.6302,2.6311,2.6367,2.6399,2.6351,2.6351,2.6361,2.6433,2.6455,2.6462,2.6549,2.6488,2.6493,2.6496,2.6499,2.6693,2.6695,0,0,0,0,0,0,2.6184,2.6199,2.632,2.6325,2.6244,2.6306,2.6316,2.6345,2.6398,2.6405,2.6362,2.6361,2.6447,2.6456,2.6465,2.6549,2.6494,2.6499,2.6502,2.6691,2.6694,2.6696,0,0,0,0,0,0,2.618,2.6194,2.6316,2.6262,2.6278,2.6311,2.6343,2.6348,2.6369,2.6407,2.6413,2.6379,2.6446,2.6458,2.6521,2.6552,2.6501,2.6506,2.6689,2.6692,2.6695,2.6715,0,0,0,0,0,0,2.6175,2.6193,2.6218,2.6263,2.6281,2.637,2.6345,2.6351,2.6378,2.6377,2.6424,2.643,2.6445,2.6513,2.6526,2.6558,2.651,2.6686,2.669,2.6694,2.6712,2.6718,2.6724,0,0,0,0,0,2.6169,2.6221,2.622,2.6234,2.6313,2.6372,2.6382,2.6398,2.6381,2.6407,2.6431,2.6429,2.6546,2.652,2.6534,2.6568,2.6685,2.6689,2.6694,2.6709,2.6717,2.6724,0,0,0,0,0,0,2.618,2.6227,2.6226,2.6293,2.6328,2.6371,2.6405,2.6405,2.6447,2.6444,2.6462,2.6473,2.6536,2.6558,2.6528,2.6637,2.6613,2.6621,2.662,2.6628,2.6634,2.6628,2.6515,0,0,0,0,0,2.619,2.6233,2.6272,2.6328,2.6345,2.6372,2.6398,2.6407,2.6444,2.6459,2.6488,2.6525,2.6571,2.66,2.6644,2.6714,2.6725,2.6745,2.6751,2.6756,2.6763,2.6803,2.6812,2.6711,2.6711,2.6711,0,0,2.6212,2.6243,2.6269,2.6331,2.6359,2.6404,2.6385,2.6433,2.6467,2.6467,2.6529,2.6551,2.6594,2.6661,2.6692,2.6682,2.6793,2.6762,2.6765,2.677,2.6809,2.6818,2.6827,2.6714,2.6713,2.6713,0,0,2.6274,2.6301,2.6351,2.6379,2.6422,2.644,2.6451,2.6494,2.6509,2.6571,2.6572,2.6613,2.669,2.6721,2.6747,2.682,2.682,2.6834,2.6866,2.6905,2.6913,2.6921,2.6948,2.6958,2.684,2.6841,2.6841,0,2.6296,2.6363,2.6377,2.6425,2.6453,2.6454,2.6505,2.6533,2.6588,2.6607,2.6594,2.6691,2.672,2.6795,2.6813,2.6833,2.6849,2.6829,2.6911,2.6918,2.6925,2.6952,2.6962,2.6842,2.6842,2.6842,2.6842,0,2.6388,2.6434,2.6469,2.6522,2.6553,2.6603,2.6625,2.6656,2.6661,2.6681,2.6744,2.6778,2.6829,2.6847,2.6854,2.6924,2.6916,2.6907,2.6884,2.6936,2.6962,2.6972,2.6844,2.6844,2.6843,2.6843,0,0,2.646,2.6519,2.6532,2.6557,2.6604,2.664,2.669,2.6739,2.6765,2.6803,2.6846,2.6911,2.6903,2.6932,2.6942,2.6976,2.7034,2.6963,2.6964,2.6976,2.7115,2.7122,2.7134,2.7033,2.7035,2.7037,2.7111,0,2.6529,2.6617,2.6631,2.6709,2.6752,2.6754,2.6798,2.6832,2.6851,2.6891,2.6913,2.6959,2.6944,2.6962,2.6995,2.702,2.7062,2.7014,2.7075,2.7077,2.7066,2.7147,2.7155,2.7224,2.7121,2.7123,2.7124,0,2.662,2.666,2.6742,2.6784,2.6803,2.6841,2.6888,2.6926,2.6965,2.6977,2.7009,2.7015,2.7068,2.7041,2.7115,2.7083,2.7108,2.7124,2.7127,2.7135,2.7105,2.7158,2.7246,2.7257,2.714,2.7138,2.7137,0,2.6667,2.674,2.6799,2.682,2.6869,2.6897,2.6919,2.6956,2.6985,2.7026,2.7045,2.7091,2.7117,2.7153,2.7172,2.7151,2.7245,2.722,2.7258,2.7257,2.7279,2.7278,2.7374,2.7293,2.7293,2.7292,2.7292,0,2.6742,2.6793,2.6821,2.6857,2.6914,2.693,2.6986,2.7007,2.704,2.7082,2.7086,2.7125,2.7146,2.7189,2.7204,2.7263,2.7275,2.7287,2.729,2.7287,2.7286,2.7305,2.7302,2.7295,2.7295,2.7294,2.7294,0,2.6804,2.6825,2.6889,2.6931,2.6942,2.6982,2.7018,2.7054,2.7073,2.7125,2.7138,2.7168,2.7218,2.724,2.7302,2.7312,2.7381,2.738,2.7367,2.7369,2.7406,2.7403,2.7519,2.7536,2.7442,2.7443,2.7444,0,2.6851,2.689,2.6936,2.6963,2.6986,2.7031,2.706,2.7077,2.7107,2.7155,2.7185,2.7235,2.7276,2.7356,2.7384,2.7432,2.7433,2.7471,2.7441,2.7437,2.7436,2.7434,2.7438,2.7477,2.7478,2.7479,2.7479,0,2.6934,2.6942,2.6984,2.703,2.7064,2.7101,2.7137,2.716,2.7182,2.7217,2.7268,2.7299,2.7362,2.7412,2.7462,2.7485,2.7487,2.7488,2.75,2.7498,2.7489,2.7496,2.7384,2.7486,2.7485,2.7485,2.7484,2.7484,2.6991,2.7026,2.7064,2.711,2.7139,2.7173,2.7209,2.7231,2.7274,2.7326,2.7334,2.7388,2.7427,2.7493,2.7519,2.7563,2.7554,2.757,2.7574,2.7578,2.7581,2.7481,2.7572,2.7571,2.7571,2.7571,2.7571,0,2.7075,2.7099,2.7142,2.7192,2.7229,2.7225,2.7265,2.7297,2.7345,2.738,2.742,2.7479,2.7528,2.7559,2.7608,2.7638,2.764,2.765,2.7649,2.7655,2.7586,2.7572,2.7648,2.7648,2.7648,2.7648,2.7648,2.7648,2.7123,2.7182,2.7195,2.7269,2.7293,2.7346,2.737,2.7401,2.743,2.7495,2.7535,2.7555,2.7589,2.7641,2.7686,2.7694,2.7713,2.7724,2.7732,2.7667,2.766,2.7652,2.7639,2.7728,2.7728,2.7797,2.7798,2.7799]}]]